Home   Weather   Fairfield   Past weeks
Flag for USA

Past Weather in Fairfield, Pennsylvania, USA — Yesterday and Last 2 Weeks

Now
31 °F

Cloudy.


Feels Like: 22 °F
Forecast: 33 / 29 °F
Wind: 12 mph from West

Location: Allegheny County Airport

Current Time: Dec 15, 2019 at 3:47:18 pm

Latest Report: Dec 15, 2019 at 2:53 pm


Visibility: 5 mi

Pressure: 30.12 "Hg

Humidity: 73%

Dew Point: 23 °F

Location of FairfieldLocation

Past Weather in Fairfield — Graph

°F

Fairfield Temperature Yesterday

Maximum temperature yesterday: 41 °F (at 12:17 am)
Minimum temperature yesterday: 34 °F (at 1:53 pm)
Average temperature yesterday: 38 °F

High & Low Weather Summary for the Past Weeks

 TemperatureHumidityPressure
High57 °F (Dec 9, 10:53 pm)100% (Dec 1, 4:53 am)30.66 "Hg (Dec 1, 4:53 am)
Low19 °F (Dec 12, 4:53 am)48% (Dec 7, 2:53 pm)29.40 "Hg (Dec 1, 12:18 pm)
Average36 °F81%29.91 "Hg
* Reported Nov 30 2:53 pm — Dec 15 2:23 pm, Fairfield. Weather by CustomWeather, © 2019

Note: Actual official high and low records may vary slightly from our data, if they occured in-between our weather recording intervals... More about our weather records

Fairfield Weather History for the Previous 24 Hours

Scroll right to see more
 ConditionsComfort  
Time TempWeatherWind HumidityBarometerVisibility
2:23 pm
Sun, Dec 15
31 °FMore clouds than sun.9 mph76%30.06 "Hg5 mi
1:53 pm31 °FOvercast.9 mph76%30.11 "Hg5 mi
1:24 pm31 °FMostly cloudy.9 mph73%30.06 "Hg5 mi
12:53 pm31 °FMore clouds than sun.12 mph73%30.09 "Hg5 mi
11:53 am30 °FMore clouds than sun.13 mph82%30.07 "Hg5 mi
11:38 am30 °FIce fog.7 mph85%30.02 "Hg3 mi
11:11 am30 °FLight snow. Ice fog.8 mph85%30.02 "Hg3 mi
10:53 am31 °FSleet. Ice fog.8 mph85%30.06 "Hg4 mi
10:36 am31 °FIce fog.14 mph85%30.00 "Hg6 mi
9:53 am32 °FIce fog.8 mph85%30.02 "Hg5 mi
9:24 am32 °FOvercast.10 mph82%29.96 "Hg8 mi
8:53 am32 °FMostly cloudy.10 mph85%29.98 "Hg9 mi
7:53 am33 °FOvercast.8 mph78%29.93 "Hg10 mi
6:53 am34 °FMostly cloudy.14 mph79%29.89 "Hg10 mi
5:53 am37 °FOvercast.14 mph73%29.83 "Hg8 mi
5:31 am38 °FMostly cloudy.20 mph76%29.77 "Hg9 mi
4:53 am38 °FOvercast.13 mph83%29.78 "Hg7 mi
4:08 am38 °FFog.15 mph86%29.72 "Hg5 mi
3:53 am38 °FFog.15 mph86%29.76 "Hg5 mi
2:53 am38 °FFog.10 mph86%29.75 "Hg4 mi
2:37 am38 °FFog.14 mph86%29.70 "Hg4 mi
1:53 am37 °FFog.13 mph93%29.72 "Hg3 mi
12:53 am37 °FFog.12 mph89%29.71 "Hg4 mi
11:53 pm
Sat, Dec 14
37 °FFog.18 mph86%29.70 "Hg4 mi
10:53 pm37 °FFog.18 mph86%29.68 "Hg4 mi
10:06 pm37 °FFog.12 mph89%29.63 "Hg4 mi
8:53 pm37 °FFog.9 mph93%29.65 "Hg4 mi
8:13 pm36 °FFog.10 mph92%29.61 "Hg4 mi
7:53 pm36 °FFog.9 mph92%29.64 "Hg4 mi
6:53 pm35 °FLight rain. Fog.15 mph92%29.61 "Hg4 mi
5:53 pm34 °FLight snow. Fog.12 mph97%29.59 "Hg3 mi
5:03 pm34 °FLight snow. Fog.10 mph97%29.53 "Hg4 mi
4:33 pm34 °FLight snow. Fog.13 mph97%29.52 "Hg2 mi
4:22 pm34 °FLight snow. Fog.10 mph97%29.51 "Hg2 mi
3:53 pm34 °FLight snow. Fog.12 mph97%29.53 "Hg2 mi
Weather by CustomWeather, © 2019

See weather overview

Advertising